Location: Lombard
(41.8800°N, 88.0080°W)
Time: 22:39:06
(UTC-05:00)

Tiros 1 - Pass Details

Date: 05 February 2023
Orbit: 628 x 662 km, 48.4° (Epoch: 20 March)

Event Time Altitude Azimuth Distance (km) Brightness Sun altitude
Rises 05:20:45 0° 296° (WNW) 2,934 - -18.9°
Reaches altitude 10° 05:23:05 10° 292° (WNW) 2,029 - -18.4°
Exits shadow 05:26:01 36° 274° (W) 1,015 7.6 -17.9°
Maximum altitude 05:27:40 57° 214° (SW) 758 7.3 -17.6°
Drops below altitude 10° 05:32:17 10° 137° (SE) 2,042 10.4 -16.7°
Sets 05:34:39 0° 133° (SE) 2,956 11.5 -16.3°
